Weather History for Limon, CO

Change the Weather History Date:

Monday, October 15, 2012

  Actual Average Record
Temperature  
Mean Temperature 54 °F -  
Max Temperature 78 °F - 82 °F (2010)
Min Temperature 30 °F - 18 °F (2002)
Degree Days  
Heating Degree Days 11    
Month to date heating degree days 290  
Cooling Degree Days 0    
Month to date cooling degree days 0  
Growing Degree Days 2 (Base 50)    
Moisture  
Dew Point 30 °F    
Average Humidity 60    
Maximum Humidity 96    
Minimum Humidity 12    
Precipitation  
Precipitation 0.00 in - 0.02 in (2001)
Month to date precipitation 0.29  
Year to date precipitation 8.94  
Sea Level Pressure  
Sea Level Pressure 29.95 in    
Wind  
Wind Speed 4 mph (North)    
Max Wind Speed 9 mph    
Max Gust Speed 13 mph    
Visibility 10 miles    
Events      
T = Trace of Precipitation, MM = Missing Value Source: NWS Daily Summary

Daily Weather History Graph

Daily Weather History Graph

Search for Another Location

Airport:

Trip Planner

Search our weather history database for the weather conditions in past years. The results will help you decide how hot, cold, wet, or windy it might be!

Date:

Astronomy

Oct. 15, 2012 Rise Set
Actual Time 7:04 AM MDT 6:14 PM MDT
Civil Twilight 6:37 AM MDT 6:41 PM MDT
Nautical Twilight 6:06 AM MDT 7:13 PM MDT
Astronomical Twilight 5:35 AM MDT 7:44 PM MDT
Moon 7:17 AM MDT (10/15) 6:16 PM MDT (10/15)
Length of Visible Light 12h 04m
Length of Day
11h 10m
New Moon, 0% of the Moon is Illuminated
Oct 15
New Moon
Oct 21
First Quarter
Oct 29
Full
Nov 6
Last Quarter
Nov 13
New

Hourly Weather History & Observations

Time (MDT) Temp. Windchill Dew Point Humidity Pressure Visibility Wind Dir Wind Speed Gust Speed Precip Events Conditions
12:55 AM 33.1 °F 28.7 °F 30.9 °F 92% 30.13 in 10.0 mi North 4.6 mph - N/A   Clear
1:55 AM 33.1 °F 27.7 °F 30.9 °F 92% 30.11 in 10.0 mi North 5.8 mph - N/A   Clear
2:55 AM 32.0 °F 25.6 °F 30.0 °F 92% 30.09 in 10.0 mi North 6.9 mph - N/A   Clear
3:55 AM 32.0 °F 27.5 °F 30.0 °F 92% 30.07 in 10.0 mi NNE 4.6 mph - N/A   Clear
4:55 AM 32.0 °F 25.6 °F 30.0 °F 92% 30.05 in 10.0 mi North 6.9 mph - N/A   Clear
5:55 AM 30.9 °F 24.3 °F 28.9 °F 92% 30.06 in 10.0 mi North 6.9 mph - N/A   Clear
6:55 AM 30.0 °F 24.1 °F 28.9 °F 96% 30.10 in 10.0 mi North 5.8 mph - N/A   Clear
7:55 AM 35.1 °F 31.0 °F 33.1 °F 92% 30.07 in 10.0 mi North 4.6 mph - N/A   Clear
8:55 AM 48.9 °F - 39.9 °F 71% 30.05 in 10.0 mi North 3.5 mph - N/A   Clear
9:55 AM 60.1 °F - 37.0 °F 42% 30.00 in 10.0 mi Calm Calm - N/A   Clear
10:55 AM 66.0 °F - 33.1 °F 29% 29.97 in 10.0 mi Calm Calm - N/A   Clear
11:55 AM 70.0 °F - 27.0 °F 20% 29.93 in 10.0 mi SSW 6.9 mph - N/A   Clear
12:55 PM 72.0 °F - 23.0 °F 16% 29.89 in 10.0 mi SW 3.5 mph - N/A   Clear
1:55 PM 75.0 °F - 23.0 °F 14% 29.85 in 10.0 mi Calm Calm - N/A   Clear
2:55 PM 75.0 °F - 19.0 °F 12% 29.83 in 10.0 mi SSW 3.5 mph - N/A   Clear
3:55 PM 75.9 °F - 19.0 °F 12% 29.82 in 10.0 mi Calm Calm - N/A   Clear
4:55 PM 75.9 °F - 21.0 °F 13% 29.81 in 10.0 mi Calm Calm - N/A   Clear
5:55 PM 69.1 °F - 27.0 °F 21% 29.83 in 10.0 mi SSE 3.5 mph - N/A   Clear
6:55 PM 51.1 °F - 34.0 °F 52% 29.91 in 10.0 mi Calm Calm - N/A   Clear
7:55 PM 44.1 °F 40.8 °F 36.0 °F 73% 29.91 in 10.0 mi North 5.8 mph - N/A   Clear
8:55 PM 42.1 °F 38.4 °F 37.0 °F 82% 29.88 in 10.0 mi North 5.8 mph - N/A   Clear
9:55 PM 41.0 °F 36.4 °F 36.0 °F 82% 29.85 in 10.0 mi North 6.9 mph - N/A   Clear
10:55 PM 37.9 °F 33.5 °F 34.0 °F 86% 29.83 in 10.0 mi NNW 5.8 mph - N/A   Clear
11:55 PM 37.9 °F 35.5 °F 30.9 °F 76% 29.83 in 10.0 mi NNW 3.5 mph - N/A   Clear